GW5236 Weather Reports


Display with metric or nautical units.
time (UTC)temp
F
wind
direction
speed
MPH
gust
MPH
rain 1hr
in
rain 24hr
in
rain mn
in
humidity
%
barometer
mb
20260502180503 47 319 1.0 7.0 0.00 0.00 0.00 52 1017.3
20260502164013 44 319 3.0 8.0 0.00 0.00 0.00 56 1017.8
20260502163018 44 248 5.0 11.0 0.00 0.00 0.00 57 1017.8
20260502152007 46 360 3.0 9.0 0.00 0.00 0.00 58 1017.6
20260502151518 46 225 3.0 11.0 0.00 0.00 0.00 60 1017.7
20260502151005 45 299 4.0 11.0 0.00 0.00 0.00 63 1017.7
20260502130507 40 281 4.0 8.0 0.00 0.01 0.00 74 1017.5
20260502123508 38 290 0.0 6.0 0.00 0.01 0.00 78 1017.3
20260502122505 37 296 1.0 6.0 0.00 0.02 0.00 77 1017.2
20260502121509 36 279 1.0 4.0 0.00 0.02 0.00 79 1017.1
20260502120505 35 283 2.0 5.0 0.00 0.02 0.00 80 1017.2
20260502115507 34 265 1.0 4.0 0.00 0.02 0.00 83 1017.1
20260502114520 33 240 1.0 4.0 0.00 0.02 0.00 85 1017.0
20260502114009 33 245 1.0 3.0 0.00 0.02 0.00 86 1017.1
20260502113509 32 259 1.0 3.0 0.00 0.02 0.00 88 1017.0
20260502113022 31 250 1.0 2.0 0.00 0.02 0.00 89 1017.0
20260502112508 31 267 0.0 2.0 0.00 0.02 0.00 89 1017.0
20260502112008 30 232 0.0 2.0 0.00 0.02 0.00 89 1016.9
20260502111508 30 232 0.0 2.0 0.00 0.02 0.00 88 1017.1
20260502110014 30 232 0.0 0.0 0.00 0.02 0.00 86 1017.1
20260502104529 30 232 0.0 2.0 0.00 0.02 0.00 86 1016.9
20260502103022 31 230 0.0 2.0 0.00 0.02 0.00 85 1016.8
20260502102508 31 230 0.0 2.0 0.00 0.02 0.00 85 1016.8
20260502102008 31 230 0.0 2.0 0.00 0.02 0.00 85 1016.7
20260502101524 31 230 0.0 2.0 0.00 0.02 0.00 86 1016.8
20260502101010 31 241 0.0 2.0 0.00 0.02 0.00 86 1016.7
20260502100510 31 241 0.0 2.0 0.00 0.02 0.00 87 1016.7
20260502091508 30 251 0.0 0.0 0.00 0.02 0.00 91 1016.8
20260502091004 30 251 0.0 2.0 0.00 0.02 0.00 91 1016.8
20260502090503 31 251 0.0 2.0 0.00 0.02 0.00 92 1016.8
20260502071001 32 236 0.0 0.0 0.00 0.02 0.00 88 1016.5
20260502070501 33 236 0.0 0.0 0.00 0.02 0.00 88 1016.5
20260502070013 33 236 0.0 0.0 0.00 0.02 0.00 87 1016.6
20260502065500 33 236 0.0 2.0 0.00 0.02 0.00 87 1016.6
20260502065002 33 236 0.0 2.0 0.00 0.02 0.00 88 1016.7
20260502064524 34 236 0.0 2.0 0.00 0.02 0.00 88 1016.7
20260502064004 34 236 0.0 2.0 0.00 0.02 0.00 89 1016.7
20260502063507 33 236 0.0 2.0 0.00 0.02 0.00 90 1016.8
20260502063016 33 261 0.0 3.0 0.00 0.02 0.00 92 1016.7
20260502062505 33 252 0.0 3.0 0.00 0.02 0.00 94 1016.7
20260502062009 33 279 0.0 2.0 0.00 0.02 0.00 95 1016.7
20260502061519 32 263 0.0 2.0 0.00 0.02 0.00 95 1016.7
20260502061008 32 263 0.0 2.0 0.00 0.02 0.00 95 1016.8
20260502060508 32 238 0.0 0.0 0.00 0.02 0.00 94 1016.8
20260502055501 32 238 0.0 0.0 0.00 0.02 0.00 94 1016.8
20260502055001 32 238 0.0 0.0 0.00 0.02 0.00 94 1017.0
20260502054507 32 238 0.0 0.0 0.00 0.02 0.00 94 1016.9
20260502054004 32 238 0.0 0.0 0.00 0.02 0.00 94 1017.0
20260502053505 32 238 0.0 0.0 0.00 0.02 0.00 94 1017.2
20260502053012 32 238 0.0 0.0 0.00 0.02 0.00 94 1017.1
20260502052507 32 238 0.0 0.0 0.00 0.02 0.00 94 1017.1
20260502052005 33 238 0.0 0.0 0.00 0.02 0.00 94 1017.1
20260502051516 33 238 0.0 0.0 0.00 0.02 0.00 94 1017.0
20260502051005 33 238 0.0 0.0 0.00 0.02 0.00 94 1017.1
20260502050506 33 238 0.0 0.0 0.00 0.02 0.00 94 1017.1
20260502050022 33 238 0.0 0.0 0.00 0.02 0.00 94 1017.2
20260502045506 33 238 0.0 0.0 0.00 0.02 0.00 93 1017.2
20260502045011 33 238 0.0 0.0 0.00 0.02 0.00 93 1017.3
20260502044524 33 238 0.0 0.0 0.00 0.02 0.00 93 1017.2
20260502044002 33 238 0.0 0.0 0.00 0.02 0.00 93 1017.2
20260502043502 34 238 0.0 0.0 0.00 0.02 0.00 93 1017.3
20260502043015 34 238 0.0 0.0 0.00 0.02 0.00 93 1017.2
20260502042507 34 238 0.0 0.0 0.00 0.02 0.00 93 1017.1
20260502042005 34 238 0.0 0.0 0.00 0.02 0.00 93 1017.2
20260502041511 35 238 0.0 0.0 0.00 0.02 0.00 93 1017.2
20260502041005 35 238 0.0 2.0 0.00 0.02 0.00 93 1017.2
20260502040509 35 238 0.0 2.0 0.00 0.02 0.00 93 1017.0
20260502040023 35 238 0.0 2.0 0.00 0.02 0.00 93 1017.1
20260502035509 35 238 0.0 2.0 0.00 0.02 0.02 93 1017.1
20260502035009 35 238 0.0 2.0 0.00 0.02 0.02 92 1017.0
20260502034527 35 238 0.0 2.0 0.00 0.02 0.02 92 1017.1
20260502034009 36 238 0.0 0.0 0.00 0.02 0.02 92 1017.2
20260502033507 36 238 0.0 0.0 0.00 0.02 0.02 92 1017.2
20260502033026 36 238 0.0 1.0 0.00 0.02 0.02 92 1017.1
20260502032502 36 238 0.0 2.0 0.00 0.02 0.02 92 1017.3
20260502032002 37 238 0.0 2.0 0.00 0.02 0.02 93 1017.2
20260502031514 37 290 0.0 2.0 0.00 0.02 0.02 92 1017.2
20260502031005 37 290 0.0 2.0 0.00 0.02 0.02 92 1017.2
20260502030506 37 290 0.0 2.0 0.00 0.02 0.02 92 1017.2
20260502030018 37 290 0.0 2.0 0.00 0.02 0.02 91 1017.2
20260502025504 37 290 0.0 1.0 0.00 0.02 0.02 91 1017.2
20260502025005 38 290 0.0 2.0 0.00 0.02 0.02 91 1017.2
20260502024519 38 290 0.0 2.0 0.00 0.02 0.02 91 1017.1
20260502024008 38 290 0.0 2.0 0.00 0.02 0.02 91 1017.0
20260502023508 38 290 0.0 2.0 0.00 0.02 0.02 90 1016.9
20260502023022 38 290 0.0 1.0 0.00 0.02 0.02 90 1016.8
20260502022513 39 290 0.0 2.0 0.00 0.02 0.02 90 1016.8
20260502022014 39 290 0.0 2.0 0.00 0.02 0.02 89 1016.6
20260502021524 39 290 0.0 2.0 0.00 0.02 0.02 88 1016.5
20260502021001 39 290 0.0 2.0 0.00 0.02 0.02 88 1016.3
20260502020505 39 290 0.0 1.0 0.00 0.02 0.02 87 1016.3
20260502020021 40 290 0.0 2.0 0.00 0.02 0.02 86 1016.2
20260502015505 40 290 0.0 2.0 0.00 0.02 0.02 85 1016.2
20260502015007 41 290 0.0 2.0 0.00 0.02 0.02 84 1016.3
20260502014515 41 290 0.0 2.0 0.00 0.02 0.02 84 1016.2
20260502014007 42 290 1.0 2.0 0.00 0.02 0.02 83 1016.1
20260502013508 42 290 0.0 2.0 0.00 0.02 0.02 81 1016.1
20260502013021 42 290 0.0 2.0 0.00 0.02 0.02 78 1016.0
20260502012508 43 290 0.0 2.0 0.00 0.02 0.02 77 1016.0
20260502012015 43 290 0.0 2.0 0.00 0.02 0.02 75 1016.0
20260502011542 43 299 0.0 2.0 0.00 0.02 0.02 74 1015.9
20260502011010 44 266 0.0 3.0 0.00 0.02 0.02 73 1015.7
20260502010508 44 266 1.0 4.0 0.00 0.02 0.02 72 1015.6
20260502010015 44 248 2.0 4.0 0.00 0.02 0.02 72 1015.6
20260502005505 44 271 0.0 3.0 0.00 0.02 0.02 72 1015.4
20260502005007 45 262 0.0 3.0 0.00 0.02 0.02 72 1015.3
20260502004522 45 263 1.0 3.0 0.00 0.02 0.02 72 1015.2
20260502004007 45 263 1.0 6.0 0.00 0.02 0.02 72 1015.2
20260502003504 46 261 1.0 4.0 0.00 0.02 0.02 72 1015.2
20260502003005 46 254 2.0 3.0 0.00 0.02 0.02 72 1015.3
20260502002502 46 257 1.0 3.0 0.00 0.02 0.02 73 1015.4
20260502002003 46 286 1.0 2.0 0.00 0.02 0.02 72 1015.5
20260502001507 47 293 1.0 3.0 0.00 0.02 0.02 71 1015.5
20260502001003 47 288 1.0 3.0 0.00 0.02 0.02 71 1015.5
20260502000503 47 275 1.0 2.0 0.00 0.02 0.02 70 1015.5
20260502000011 47 276 1.0 2.0 0.00 0.02 0.02 69 1015.3
20260501235509 47 298 0.0 3.0 0.00 0.02 0.02 68 1015.0
20260501235006 47 298 0.0 3.0 0.00 0.02 0.02 67 1014.9
20260501234515 47 274 2.0 3.0 0.00 0.02 0.02 67 1014.8
20260501234006 47 273 0.0 4.0 0.00 0.02 0.02 67 1014.7
20260501233506 47 309 0.0 4.0 0.00 0.02 0.02 67 1014.6
20260501233004 48 304 0.0 3.0 0.00 0.02 0.02 67 1014.7
20260501232504 48 270 1.0 4.0 0.00 0.02 0.02 66 1014.7
20260501232003 48 282 2.0 4.0 0.00 0.02 0.02 66 1014.7
20260501231503 48 267 2.0 3.0 0.00 0.02 0.02 65 1014.6
20260501231004 48 281 1.0 6.0 0.00 0.02 0.02 64 1014.6
20260501230506 49 277 2.0 6.0 0.00 0.02 0.02 62 1014.7
20260501230008 49 308 2.0 11.0 0.00 0.02 0.02 63 1014.5
20260501225505 49 243 4.0 11.0 0.00 0.02 0.02 62 1014.5
20260501225007 49 229 2.0 7.0 0.00 0.02 0.02 66 1014.5
20260501224511 49 257 0.0 7.0 0.00 0.02 0.02 69 1014.5
20260501224006 49 257 1.0 3.0 0.00 0.02 0.02 67 1014.5
20260501223505 48 306 1.0 4.0 0.00 0.02 0.02 69 1014.5
20260501223014 48 268 1.0 4.0 0.00 0.02 0.02 70 1014.6
20260501222506 48 282 1.0 7.0 0.00 0.02 0.02 69 1014.5
20260501222010 48 265 1.0 7.0 0.00 0.02 0.02 68 1014.6
20260501221503 48 254 2.0 5.0 0.00 0.02 0.02 69 1014.6
20260501221003 48 277 1.0 5.0 0.00 0.02 0.02 69 1014.7
20260501220502 48 275 2.0 8.0 0.00 0.02 0.02 70 1014.7
20260501220004 48 288 1.0 8.0 0.00 0.02 0.02 69 1014.7
20260501215506 48 293 1.0 8.0 0.00 0.02 0.02 70 1014.7
20260501215004 48 294 3.0 8.0 0.00 0.02 0.02 70 1014.8
20260501214516 48 323 2.0 8.0 0.00 0.02 0.02 70 1014.7
20260501214006 48 301 1.0 8.0 0.00 0.02 0.02 70 1014.7
20260501213503 49 296 2.0 9.0 0.00 0.02 0.02 70 1014.6
20260501213024 49 313 1.0 9.0 0.00 0.02 0.02 68 1014.4
20260501212507 50 258 1.0 9.0 0.00 0.02 0.02 70 1014.2
20260501212008 50 14 4.0 9.0 0.00 0.02 0.02 71 1014.2
20260501211520 50 36 3.0 8.0 0.00 0.02 0.02 73 1014.2
20260501211009 49 43 1.0 8.0 0.00 0.02 0.02 73 1014.2
20260501210502 49 343 2.0 7.0 0.00 0.02 0.02 75 1014.3
20260501210004 48 32 2.0 7.0 0.00 0.02 0.02 74 1014.2
20260501205504 48 16 1.0 8.0 0.00 0.02 0.02 72 1014.2
20260501205003 48 279 2.0 10.0 0.00 0.02 0.02 72 1014.3
20260501204508 49 10 2.0 11.0 0.00 0.02 0.02 73 1014.2
20260501203504 49 278 5.0 10.0 0.00 0.02 0.02 71 1014.2
20260501203008 49 323 3.0 12.0 0.00 0.02 0.02 72 1014.3
20260501202508 49 279 3.0 13.0 0.00 0.02 0.02 71 1014.2
20260501202007 49 274 6.0 13.0 0.00 0.02 0.02 73 1014.2
20260501201515 48 262 4.0 8.0 0.00 0.02 0.02 76 1014.2
20260501201006 48 231 4.0 9.0 0.00 0.02 0.02 76 1014.2
20260501200511 47 320 4.0 13.0 0.00 0.02 0.02 77 1014.1
20260501200022 47 298 4.0 13.0 0.00 0.02 0.02 78 1014.2
20260501195508 46 310 4.0 12.0 0.00 0.02 0.02 78 1014.1
20260501195003 46 338 4.0 10.0 0.00 0.02 0.02 80 1014.1
20260501194505 45 252 4.0 10.0 0.00 0.02 0.02 80 1014.1
20260501194004 45 258 5.0 10.0 0.00 0.02 0.02 79 1014.1
20260501193503 45 262 1.0 11.0 0.00 0.02 0.02 81 1014.2
20260501193019 45 281 6.0 11.0 0.00 0.02 0.02 80 1014.1
20260501192504 45 284 3.0 9.0 0.00 0.02 0.02 81 1014.1
20260501192004 45 257 4.0 10.0 0.00 0.02 0.02 83 1014.1
20260501191518 44 301 5.0 10.0 0.00 0.02 0.02 83 1014.1
20260501191004 44 280 3.0 10.0 0.00 0.02 0.02 84 1014.1
20260501190512 44 280 2.0 10.0 0.00 0.02 0.02 84 1014.0
20260501190044 44 274 4.0 10.0 0.00 0.02 0.02 83 1014.0
20260501185507 44 309 3.0 10.0 0.00 0.02 0.02 83 1014.0
20260501185009 44 267 3.0 10.0 0.00 0.02 0.02 83 1013.9
20260501184533 44 325 2.0 11.0 0.00 0.02 0.02 83 1013.9
20260501184006 44 305 3.0 11.0 0.00 0.02 0.02 83 1013.8
20260501183505 45 14 4.0 10.0 0.00 0.02 0.02 82 1013.6
20260501183013 45 311 4.0 10.0 0.00 0.02 0.02 83 1013.6
20260501182503 45 299 3.0 12.0 0.00 0.02 0.02 84 1013.5
20260501182004 44 321 4.0 12.0 0.00 0.02 0.02 83 1013.3
20260501181512 44 325 2.0 14.0 0.00 0.02 0.02 84 1013.3
20260501181004 45 318 6.0 14.0 0.00 0.02 0.02 83 1013.2